Location: Newark
(25.1987°N, 100.3705°W)
Time: 12:33:10
(UTC+00:00)

ISS - Pass Details

Date: 09 April 2020
Orbit: 417 x 419 km, 51.6° (Epoch: 03 June)

Event Time Altitude Azimuth Distance (km) Brightness Sun altitude
Rises 02:01:54 0° 318° (NW) 2,355 1.1 -14.2°
Reaches altitude 10° 02:04:00 10° 318° (NW) 1,489 -0.1 -14.7°
Maximum altitude 02:07:20 84° 229° (SW) 420 -3.8 -15.4°
Enters shadow 02:08:49 31° 143° (SE) 759 -2.9 -15.7°
